This demonstration page uses our WeatherBlox Daily Observations layout. Learn more.

Left ArrowRight Arrow

39.92423, -83.80882

Hourly Observations for November 26, 2022

Temp ( °F °C ) Dew Point ( °F °C ) Humidity (%) Winds ( mph kmh ) Pressure ( in mb ) Visibility ( mi km ) Precip ( " mm )
12:56 am 00:56 Clear 33 0.6 N/A N/A WNW 3 6 30.22 1023 7 11 0.00 0.00
1:56 am 01:56 Hazy 31 -0.6 N/A N/A W 6 9 30.22 1024 4 6 0.00 0.00
2:56 am 02:56 Hazy 31 -0.6 N/A N/A Calm 30.22 1023 4 6 0.00 0.00
3:14 am 03:14 Clear with Mist and Fog 30 -1 N/A N/A Calm 30.24 1024 1 1 0.00 0.00
3:22 am 03:22 Clear with Freezing Fog 30 -1 N/A N/A Calm 30.25 1024 1 1 0.00 0.00
3:39 am 03:39 Clear with Mist and Fog 28 -2 N/A N/A Calm 30.25 1024 1 2 0.00 0.00
3:44 am 03:44 Clear with Mist and Fog 28 -2 N/A N/A Calm 30.25 1024 2 3 0.00 0.00
3:56 am 03:56 Clear with Mist and Fog 28 -2.2 N/A N/A SSW 3 6 30.22 1023 1 1 0.00 0.00
4:04 am 04:04 Clear with Freezing Fog 28 -2 N/A N/A WSW 5 7 30.25 1024 1 1 0.00 0.00
4:27 am 04:27 Clear with Freezing Fog 27 -3 N/A N/A WSW 5 7 30.25 1024 0 0 0.00 0.00
4:37 am 04:37 Clear with Mist and Fog 28 -2 N/A N/A WSW 3 6 30.24 1024 1 1 0.00 0.00
4:40 am 04:40 Clear with Mist and Fog 28 -2 N/A N/A SW 3 6 30.24 1024 1 2 0.00 0.00
4:49 am 04:49 Clear with Mist and Fog 27 -3 N/A N/A SW 5 7 30.25 1024 3 4 0.00 0.00
4:56 am 04:56 Clear with Mist and Fog 28 -2.2 N/A N/A SW 6 9 30.21 1023 3 5 0.00 0.00
5:56 am 05:56 Hazy 25 -3.9 N/A N/A S 3 6 30.22 1023 4 6 0.00 0.00
6:14 am 06:14 Clear with Mist and Fog 25 -4 N/A N/A Calm 30.25 1024 1 1 0.00 0.00
6:34 am 06:34 Clear with Freezing Fog 27 -3 N/A N/A SW 3 6 30.25 1024 0 0 0.00 0.00
6:53 am 06:53 Mostly Clear with Freezing Fog 25 -4 N/A N/A SW 3 6 30.26 1025 0 0 0.00 0.00
6:56 am 06:56 Mostly Clear with Freezing Fog 24 -4.4 N/A N/A SSW 3 6 30.22 1023 0 0 0.00 0.00
7:13 am 07:13 Mostly Clear with Mist and Fog 25 -4 N/A N/A SSW 5 7 30.25 1024 1 1 0.00 0.00
7:18 am 07:18 Mostly Clear with Mist and Fog 25 -4 N/A N/A SSW 5 7 30.25 1024 1 2 0.00 0.00
7:33 am 07:33 Sunny with Freezing Fog 25 -4 N/A N/A S 3 6 30.25 1024 1 1 0.00 0.00
7:41 am 07:41 Sunny with Freezing Fog 25 -4 N/A N/A SSE 3 6 30.24 1024 0 0 0.00 0.00
7:44 am 07:44 Sunny with Mist and Fog 21 -6 N/A N/A Calm 30.26 1025 1 1 0.00 0.00
7:50 am 07:50 Sunny with Freezing Fog 21 -6 N/A N/A Calm 30.26 1025 0 0 0.00 0.00
7:56 am 07:56 Sunny with Freezing Fog 22 -5.6 N/A N/A SE 3 6 30.22 1023 1 1 0.00 0.00
8:02 am 08:02 Sunny with Mist and Fog 21 -6 N/A N/A SSE 3 6 30.26 1025 1 2 0.00 0.00
8:14 am 08:14 Sunny with Mist and Fog 27 -3 N/A N/A S 3 6 30.26 1025 2 3 0.00 0.00
8:35 am 08:35 Sunny with Mist and Fog 28 -2 N/A N/A SSE 3 6 30.25 1024 3 5 0.00 0.00
8:56 am 08:56 Sunny with Mist and Fog 31 -0.6 N/A N/A SW 6 9 30.23 1024 3 5 0.00 0.00
9:56 am 09:56 Sunny 39 3.9 39 3.9 100 100 SW 5 7 30.22 1023 7 11 0.00 0.00
10:56 am 10:56 Sunny 45 7.2 37 2.8 74 74 S 6 9 30.20 1023 10 16 0.00 0.00
11:56 am 11:56 Sunny 50 10 35 1.7 56 56 SSW 8 13 30.16 1021 10 16 0.00 0.00
12:56 pm 12:56 Sunny 53 11.7 31 -0.6 43 43 SW 8 13 30.11 1020 10 16 0.00 0.00
1:56 pm 13:56 Sunny 55 12.8 27 -2.8 34 34 S 7 11 30.09 1019 10 16 0.00 0.00
2:56 pm 14:56 Sunny 55 12.8 28 -2.2 35 35 S 5 7 30.06 1018 10 16 0.00 0.00
3:56 pm 15:56 Sunny 52 11.1 30 -1.1 43 43 SSE 5 7 30.04 1017 10 16 0.00 0.00
4:56 pm 16:56 Sunny 50 10 30 -1.1 46 46 S 5 7 30.04 1017 10 16 0.00 0.00
5:56 pm 17:56 Clear 45 7.2 30 -1.1 55 55 SE 6 9 30.03 1017 10 16 0.00 0.00
6:56 pm 18:56 Clear 45 7.2 31 -0.6 58 58 SSE 6 9 30.02 1017 10 16 0.00 0.00
7:56 pm 19:56 Clear 41 5 31 -0.6 67 67 SE 5 7 30.00 1016 10 16 0.00 0.00
8:56 pm 20:56 Clear 42 5.6 30 -1.1 62 62 SE 5 7 29.97 1015 10 16 0.00 0.00
9:56 pm 21:56 Clear 44 6.7 32 0 62 62 SSE 9 15 29.92 1013 10 16 0.00 0.00
10:56 pm 22:56 Clear 44 6.7 32 0 62 62 SSE 7 11 29.88 1012 10 16 0.00 0.00
11:56 pm 23:56 Mostly Cloudy 46 7.8 32 0 58 58 SSE 5 7 29.87 1012 10 16 0.00 0.00

Powered by AerisWeather